Regional Weather Roundup
Issued by NWS

Home | Current Version | Previous Version | Text Only | Print | Product List | Glossary On
Versions: 1 2 3 4 5 6 7 8 9 10 11 12 13 14 15 16 17 18 19 20 21 22 23 24 25 26 27 28 29 30 31 32 33 34 35 36 37 38 39 40 41 42 43 44 45 46 47 48 49 50
362
ASUS44 KLIX 280807
RWRLA
LOUISIANA WEATHER ROUNDUP
NATIONAL WEATHER SERVICE NEW ORLEANS LA
300 AM CDT SAT MAR 28 2015

NOTE: "FAIR" INDICATES FEW OR NO CLOUDS BELOW 12,000 FEET WITH NO
      SIGNIFICANT WEATHER AND/OR OBSTRUCTIONS TO VISIBILITY.
      SKY/WX - SKY CONDITION AND SIGNIFICANT WEATHER.
      TMP - AIR TEMPERATURE.    DP   - DEWPOINT TEMPERATURE.
      RH  - RELATIVE HUMIDITY.  PRES - PRESSURE.
      HX  - HEAT INDEX.         WCI  - WIND CHILL INDEX.

*  THESE STATIONS ARE NOT NWS OR FAA STATIONS AND ARE NOT UNDER
   NWS QUALITY CONTROL.

LAZ040-048-061>063-065-066-069-280900-
SOUTHEAST LOUISIANA

CITY           SKY/WX    TMP DP  RH WIND       PRES   REMARKS
N.O. AUDUBON     N/A     55 N/A N/A MISG        N/A
N.O. INTL ARPT CLEAR     55  35  47 NE12      30.16F
N.O. LAKEFRONT CLEAR     57  39  51 NE14      30.17F
SLIDELL        FAIR      45  40  82 CALM      30.17S
BATON ROUGE    CLEAR     47  41  80 NE6       30.16F
BOOTHVILLE     PTCLDY    57  45  64 NE6       30.15F
BELLE CHASSE   CLEAR     50  37  61 NE7       30.16F
BOGALUSA*        N/A     43  39  86 CALM      30.19S
GALLIANO*      SUNNY     57  42  57 MISG      30.16S
NEW ROADS*     FAIR      48  42  77 NE5       30.17F
GONZALES*      FAIR      48  42  79 CALM      30.16F
HAMMOND*       CLEAR     46  37  71 CALM      30.19S
HOUMA*         CLEAR     50  45  81 NE6       30.16S
PORT FOURCHON* SUNNY     59  46  63 NE14G21   30.18S

$$

LAZ041-044-053-054-280900-
SOUTHWEST LOUISIANA

CITY           SKY/WX    TMP DP  RH WIND       PRES   REMARKS
LAKE CHARLES   CLEAR     50  43  77 NE5       30.15F
LAFAYETTE      CLEAR     51  44  77 E5        30.16F
PATTERSON      CLEAR     52  41  66 NE6       30.17F
SALT POINT       N/A     53  44  71 VRB3      30.15F
NEW IBERIA     CLEAR     53  42  66 E5        30.17F
CHENAULT AIRPK CLEAR     49  45  83 CALM      30.16F

$$

LAZ027-028-280900-
CENTRAL LOUISIANA

CITY           SKY/WX    TMP DP  RH WIND       PRES   REMARKS
FORT POLK      CLEAR     50  40  68 SE3       30.14F
ALEXANDRIA INT CLEAR     48  41  76 NE3       30.16F
ALEXANDRIA     CLEAR     42  41  96 CALM      30.17F

$$

LAZ001-002-280900-
NORTHWEST LOUISIANA

CITY           SKY/WX    TMP DP  RH WIND       PRES   REMARKS
SHREVEPORT     PTCLDY    45  37  73 CALM      30.16F
BARKSDALE AFB  CLEAR     42  37  80 E3        30.17F
DTN SHREVEPORT CLEAR     47  36  65 E5        30.17F

$$

LAZ014-016-280900-
NORTHEAST LOUISIANA

CITY           SKY/WX    TMP DP  RH WIND       PRES   REMARKS
MONROE         CLEAR     42  40  92 CALM      30.20F
TALLULAH       CLEAR     41  36  82 CALM      30.21R

$$




USA.gov is the U.S. government's official web portal to all federal, state and local government web resources and services.